Time,TemperatureF,DewpointF,PressureIn,WindDirection,WindDirectionDegrees,WindSpeedMPH,WindSpeedGustMPH,Humidity,HourlyPrecipIn,Conditions,Clouds,dailyrainin,SoftwareType,DateUTC
2013-02-07 00:00:00,45.5,40.5,29.76,South,180,3.0,11.9,82,0.02,,,0.14,NetBSD+Arduino,2013-02-07 08:00:00,
2013-02-07 00:06:00,45.4,40.6,29.75,South,180,7.5,9.0,83,0.02,,,0.00,NetBSD+Arduino,2013-02-07 08:06:00,
2013-02-07 00:11:00,45.3,40.5,29.76,South,180,6.7,10.4,83,0.02,,,0.00,NetBSD+Arduino,2013-02-07 08:11:00,
2013-02-07 00:21:00,45.2,40.4,29.76,South,180,3.0,10.4,83,0.02,,,0.00,NetBSD+Arduino,2013-02-07 08:21:00,
2013-02-07 00:26:00,45.2,40.5,29.77,South,180,7.1,16.4,83,0.02,,,0.00,NetBSD+Arduino,2013-02-07 08:26:00,
2013-02-07 00:31:00,45.6,40.9,29.76,South,180,7.5,20.9,83,0.02,,,0.00,NetBSD+Arduino,2013-02-07 08:31:00,
2013-02-07 00:36:00,45.4,40.8,29.76,South,180,10.4,16.4,83,0.00,,,0.00,NetBSD+Arduino,2013-02-07 08:36:00,
2013-02-07 00:41:00,45.6,40.6,29.76,South,180,3.0,25.4,82,0.00,,,0.00,NetBSD+Arduino,2013-02-07 08:41:00,
2013-02-07 00:46:00,45.1,40.8,29.76,South,180,5.2,13.4,84,0.00,,,0.00,NetBSD+Arduino,2013-02-07 08:46:00,
2013-02-07 00:51:00,44.9,40.8,29.77,South,180,0.4,9.0,85,0.00,,,0.00,NetBSD+Arduino,2013-02-07 08:51:00,
2013-02-07 01:00:00,44.5,41.3,29.79,South,180,4.5,9.0,88,0.03,,,0.03,NetBSD+Arduino,2013-02-07 09:00:00,
2013-02-07 01:06:00,44.2,41.6,29.79,South,180,4.5,14.9,90,0.03,,,0.03,NetBSD+Arduino,2013-02-07 09:06:00,
2013-02-07 01:16:00,43.2,41.0,29.80,South,180,1.5,13.4,92,0.05,,,0.05,NetBSD+Arduino,2013-02-07 09:16:00,
2013-02-07 01:31:00,42.5,40.5,29.80,South,180,4.1,14.9,92,0.06,,,0.06,NetBSD+Arduino,2013-02-07 09:31:00,
2013-02-07 01:36:00,42.3,40.4,29.80,South,180,9.8,11.9,92,0.06,,,0.06,NetBSD+Arduino,2013-02-07 09:36:00,
2013-02-07 01:46:00,42.3,40.1,29.81,South,180,9.7,17.9,91,0.06,,,0.06,NetBSD+Arduino,2013-02-07 09:46:00,
2013-02-07 01:55:00,42.3,40.1,29.82,South,180,3.6,19.4,91,0.08,,,0.08,NetBSD+Arduino,2013-02-07 09:55:00,
2013-02-07 02:00:00,42.3,40.1,29.82,South,180,4.8,10.4,91,0.05,,,0.08,NetBSD+Arduino,2013-02-07 10:00:00,
2013-02-07 02:10:00,42.4,40.2,29.82,South,180,3.9,14.9,91,0.03,,,0.08,NetBSD+Arduino,2013-02-07 10:10:00,
2013-02-07 02:16:00,42.5,40.3,29.83,South,180,4.8,13.4,91,0.03,,,0.08,NetBSD+Arduino,2013-02-07 10:16:00,
2013-02-07 02:21:00,42.7,40.3,29.83,South,180,5.1,16.4,91,0.02,,,0.08,NetBSD+Arduino,2013-02-07 10:21:00,
2013-02-07 02:26:00,42.9,40.2,29.83,South,180,7.8,16.4,89,0.02,,,0.08,NetBSD+Arduino,2013-02-07 10:26:00,
2013-02-07 02:31:00,43.0,40.2,29.83,South,180,9.0,16.4,89,0.02,,,0.08,NetBSD+Arduino,2013-02-07 10:31:00,
2013-02-07 02:40:00,42.9,40.3,29.84,South,180,6.6,17.9,90,0.02,,,0.08,NetBSD+Arduino,2013-02-07 10:40:00,
2013-02-07 02:45:00,42.8,40.3,29.84,South,180,8.2,11.9,90,0.02,,,0.08,NetBSD+Arduino,2013-02-07 10:45:00,
2013-02-07 02:50:00,42.9,40.0,29.84,South,180,8.5,20.9,89,0.00,,,0.08,NetBSD+Arduino,2013-02-07 10:50:00,
2013-02-07 02:56:00,42.8,39.7,29.84,SW,225,6.7,16.4,88,0.00,,,0.08,NetBSD+Arduino,2013-02-07 10:56:00,
2013-02-07 03:01:00,42.6,39.9,29.84,South,180,4.1,16.4,89,0.00,,,0.08,NetBSD+Arduino,2013-02-07 11:01:00,
2013-02-07 03:10:00,42.5,39.6,29.84,South,180,13.1,17.9,89,0.00,,,0.08,NetBSD+Arduino,2013-02-07 11:10:00,
2013-02-07 03:15:00,42.3,39.5,29.84,South,180,13.4,17.9,89,0.00,,,0.08,NetBSD+Arduino,2013-02-07 11:15:00,
2013-02-07 03:20:00,42.2,39.3,29.84,South,180,3.0,17.9,89,0.00,,,0.08,NetBSD+Arduino,2013-02-07 11:20:00,
2013-02-07 03:35:00,42.3,39.0,29.84,South,180,9.3,19.4,87,0.00,,,0.08,NetBSD+Arduino,2013-02-07 11:35:00,
2013-02-07 03:40:00,42.3,38.9,29.84,South,180,14.5,20.9,87,0.00,,,0.08,NetBSD+Arduino,2013-02-07 11:40:00,
2013-02-07 03:45:00,42.3,38.8,29.84,South,180,11.2,19.4,87,0.00,,,0.08,NetBSD+Arduino,2013-02-07 11:45:00,
2013-02-07 03:50:00,42.2,38.5,29.85,South,180,9.3,22.4,86,0.00,,,0.08,NetBSD+Arduino,2013-02-07 11:50:00,
2013-02-07 03:55:00,42.4,38.5,29.86,South,180,9.7,20.9,85,0.00,,,0.08,NetBSD+Arduino,2013-02-07 11:55:00,
2013-02-07 04:00:00,42.3,38.4,29.85,South,180,8.2,20.9,86,0.00,,,0.08,NetBSD+Arduino,2013-02-07 12:00:00,
2013-02-07 04:06:00,42.3,38.2,29.86,South,180,6.0,16.4,85,0.00,,,0.08,NetBSD+Arduino,2013-02-07 12:06:00,
2013-02-07 04:16:00,42.3,38.1,29.87,South,180,4.8,25.4,84,0.00,,,0.08,NetBSD+Arduino,2013-02-07 12:16:00,
2013-02-07 04:21:00,42.5,38.0,29.87,South,180,4.1,16.4,84,0.00,,,0.08,NetBSD+Arduino,2013-02-07 12:21:00,
2013-02-07 04:31:00,42.3,37.8,29.88,South,180,10.1,17.9,83,0.00,,,0.08,NetBSD+Arduino,2013-02-07 12:31:00,
2013-02-07 04:40:00,42.5,37.8,29.89,South,180,8.6,16.4,83,0.00,,,0.08,NetBSD+Arduino,2013-02-07 12:40:00,
2013-02-07 04:50:00,42.5,37.7,29.89,South,180,12.5,16.4,82,0.00,,,0.08,NetBSD+Arduino,2013-02-07 12:50:00,
2013-02-07 05:00:00,42.5,37.4,29.89,South,180,5.2,22.4,82,0.00,,,0.08,NetBSD+Arduino,2013-02-07 13:00:00,
2013-02-07 05:15:00,42.5,37.5,29.89,SW,225,9.9,19.4,82,0.00,,,0.08,NetBSD+Arduino,2013-02-07 13:15:00,
2013-02-07 05:20:00,42.5,37.4,29.89,South,180,13.8,19.4,82,0.00,,,0.08,NetBSD+Arduino,2013-02-07 13:20:00,
2013-02-07 05:25:00,42.3,37.4,29.89,South,180,5.2,23.9,82,0.00,,,0.08,NetBSD+Arduino,2013-02-07 13:25:00,
2013-02-07 05:40:00,42.0,37.2,29.90,South,180,4.8,20.9,82,0.00,,,0.08,NetBSD+Arduino,2013-02-07 13:40:00,
2013-02-07 05:45:00,42.0,37.5,29.90,South,180,3.0,16.4,83,0.00,,,0.08,NetBSD+Arduino,2013-02-07 13:45:00,
2013-02-07 05:50:00,41.8,37.3,29.90,South,180,4.5,13.4,84,0.00,,,0.08,NetBSD+Arduino,2013-02-07 13:50:00,
2013-02-07 05:55:00,41.5,37.2,29.90,South,180,4.2,16.4,84,0.00,,,0.08,NetBSD+Arduino,2013-02-07 13:55:00,
2013-02-07 06:05:00,41.5,36.9,29.90,South,180,6.0,13.4,83,0.00,,,0.08,NetBSD+Arduino,2013-02-07 14:05:00,
2013-02-07 06:10:00,41.3,37.0,29.90,South,180,4.0,13.4,84,0.00,,,0.08,NetBSD+Arduino,2013-02-07 14:10:00,
2013-02-07 06:15:00,41.3,37.2,29.91,South,180,6.3,11.9,85,0.00,,,0.08,NetBSD+Arduino,2013-02-07 14:15:00,
2013-02-07 06:20:00,41.5,37.5,29.92,South,180,8.2,16.4,85,0.00,,,0.08,NetBSD+Arduino,2013-02-07 14:20:00,
2013-02-07 06:30:00,41.8,37.5,29.92,SW,225,1.9,22.4,84,0.00,,,0.08,NetBSD+Arduino,2013-02-07 14:30:00,
2013-02-07 06:35:00,41.6,37.3,29.92,South,180,0.7,10.4,84,0.00,,,0.08,NetBSD+Arduino,2013-02-07 14:35:00,
2013-02-07 06:40:00,41.5,37.1,29.92,South,180,6.9,11.9,84,0.00,,,0.08,NetBSD+Arduino,2013-02-07 14:40:00,
2013-02-07 06:45:00,41.3,37.0,29.92,South,180,3.0,16.4,84,0.00,,,0.08,NetBSD+Arduino,2013-02-07 14:45:00,
2013-02-07 06:50:00,41.2,37.1,29.92,South,180,8.5,17.9,85,0.00,,,0.08,NetBSD+Arduino,2013-02-07 14:50:00,
2013-02-07 06:55:00,41.2,37.2,29.92,South,180,3.4,13.4,85,0.00,,,0.08,NetBSD+Arduino,2013-02-07 14:55:00,
2013-02-07 07:00:00,41.0,37.0,29.92,South,180,3.4,16.4,85,0.00,,,0.08,NetBSD+Arduino,2013-02-07 15:00:00,
2013-02-07 07:05:00,40.9,37.0,29.92,South,180,3.7,14.9,86,0.00,,,0.08,NetBSD+Arduino,2013-02-07 15:05:00,
2013-02-07 07:10:00,40.9,37.0,29.92,South,180,5.5,16.4,86,0.00,,,0.08,NetBSD+Arduino,2013-02-07 15:10:00,
2013-02-07 07:15:00,40.9,37.2,29.92,South,180,5.1,16.4,86,0.00,,,0.08,NetBSD+Arduino,2013-02-07 15:15:00,
2013-02-07 07:20:00,40.9,37.3,29.93,South,180,3.0,13.4,86,0.00,,,0.08,NetBSD+Arduino,2013-02-07 15:20:00,
2013-02-07 07:25:00,40.8,37.1,29.93,South,180,4.5,13.4,86,0.00,,,0.08,NetBSD+Arduino,2013-02-07 15:25:00,
2013-02-07 07:30:00,40.9,37.3,29.93,South,180,8.4,13.4,86,0.00,,,0.08,NetBSD+Arduino,2013-02-07 15:30:00,
2013-02-07 07:35:00,41.0,37.2,29.94,South,180,3.0,14.9,86,0.00,,,0.08,NetBSD+Arduino,2013-02-07 15:35:00,
2013-02-07 07:40:00,40.9,37.3,29.94,South,180,5.5,9.0,86,0.00,,,0.08,NetBSD+Arduino,2013-02-07 15:40:00,
2013-02-07 07:45:00,40.9,37.2,29.95,South,180,7.5,16.4,86,0.00,,,0.08,NetBSD+Arduino,2013-02-07 15:45:00,
2013-02-07 07:50:00,41.0,37.2,29.95,South,180,8.6,16.4,86,0.00,,,0.08,NetBSD+Arduino,2013-02-07 15:50:00,
2013-02-07 07:55:00,40.9,37.3,29.95,South,180,7.8,14.9,86,0.00,,,0.08,NetBSD+Arduino,2013-02-07 15:55:00,
2013-02-07 08:00:00,41.0,37.5,29.95,South,180,2.6,13.4,87,0.00,,,0.08,NetBSD+Arduino,2013-02-07 16:00:00,
2013-02-07 08:05:00,41.0,37.3,29.95,South,180,5.2,10.4,86,0.00,,,0.08,NetBSD+Arduino,2013-02-07 16:05:00,
2013-02-07 08:10:00,41.0,37.4,29.95,South,180,2.6,10.4,86,0.00,,,0.08,NetBSD+Arduino,2013-02-07 16:10:00,
2013-02-07 08:15:00,41.3,37.6,29.96,South,180,3.7,11.9,86,0.00,,,0.08,NetBSD+Arduino,2013-02-07 16:15:00,
2013-02-07 08:20:00,41.3,37.7,29.96,South,180,5.2,11.9,86,0.00,,,0.08,NetBSD+Arduino,2013-02-07 16:20:00,
2013-02-07 08:25:00,41.5,37.7,29.97,South,180,5.5,11.9,86,0.00,,,0.08,NetBSD+Arduino,2013-02-07 16:25:00,
2013-02-07 08:30:00,41.5,37.6,29.97,South,180,3.5,11.9,85,0.00,,,0.08,NetBSD+Arduino,2013-02-07 16:30:00,
2013-02-07 08:35:00,41.6,37.5,29.97,SW,225,3.4,13.4,85,0.00,,,0.08,NetBSD+Arduino,2013-02-07 16:35:00,
2013-02-07 08:40:00,41.8,37.7,29.97,South,180,4.5,11.9,85,0.00,,,0.08,NetBSD+Arduino,2013-02-07 16:40:00,
2013-02-07 08:45:00,41.9,37.7,29.97,SW,225,4.8,14.9,84,0.00,,,0.08,NetBSD+Arduino,2013-02-07 16:45:00,
2013-02-07 08:50:00,42.0,37.9,29.97,South,180,8.4,10.4,85,0.00,,,0.08,NetBSD+Arduino,2013-02-07 16:50:00,
2013-02-07 08:55:00,42.2,37.9,29.98,South,180,5.2,14.9,84,0.00,,,0.08,NetBSD+Arduino,2013-02-07 16:55:00,
2013-02-07 09:00:00,42.3,38.2,29.98,South,180,1.5,10.4,85,0.00,,,0.08,NetBSD+Arduino,2013-02-07 17:00:00,
2013-02-07 09:10:00,42.3,38.1,29.98,SW,225,3.3,9.0,84,0.00,,,0.08,NetBSD+Arduino,2013-02-07 17:10:00,
2013-02-07 09:15:00,42.3,38.1,29.98,South,180,1.1,13.4,84,0.00,,,0.08,NetBSD+Arduino,2013-02-07 17:15:00,
2013-02-07 09:20:00,42.5,38.2,29.99,South,180,1.0,9.0,84,0.00,,,0.08,NetBSD+Arduino,2013-02-07 17:20:00,
2013-02-07 09:25:00,42.6,38.3,29.99,SW,225,3.0,11.9,84,0.00,,,0.08,NetBSD+Arduino,2013-02-07 17:25:00,
2013-02-07 09:30:00,42.5,38.0,29.99,SW,225,4.5,14.9,84,0.00,,,0.08,NetBSD+Arduino,2013-02-07 17:30:00,
2013-02-07 09:35:00,42.8,38.3,29.99,NW,315,1.5,11.9,84,0.00,,,0.08,NetBSD+Arduino,2013-02-07 17:35:00,
2013-02-07 09:40:00,43.3,38.7,29.99,South,180,1.8,11.9,83,0.00,,,0.08,NetBSD+Arduino,2013-02-07 17:40:00,
2013-02-07 09:50:00,43.6,38.5,29.98,South,180,6.5,11.9,82,0.00,,,0.08,NetBSD+Arduino,2013-02-07 17:50:00,
2013-02-07 09:55:00,44.3,38.9,29.99,South,180,2.0,9.0,81,0.00,,,0.08,NetBSD+Arduino,2013-02-07 17:55:00,
2013-02-07 10:00:00,44.1,38.7,29.99,South,180,3.0,10.4,81,0.00,,,0.08,NetBSD+Arduino,2013-02-07 18:00:00,
2013-02-07 10:05:00,44.3,38.7,29.99,South,180,2.2,11.9,80,0.00,,,0.08,NetBSD+Arduino,2013-02-07 18:05:00,
2013-02-07 10:10:00,44.3,38.7,29.99,SW,225,3.5,9.0,80,0.00,,,0.08,NetBSD+Arduino,2013-02-07 18:10:00,
2013-02-07 10:15:00,44.5,38.8,29.99,SW,225,5.1,14.9,80,0.00,,,0.08,NetBSD+Arduino,2013-02-07 18:15:00,
2013-02-07 10:20:00,44.6,38.3,30.00,SW,225,1.1,11.9,78,0.00,,,0.08,NetBSD+Arduino,2013-02-07 18:20:00,
2013-02-07 10:25:00,45.1,38.7,30.00,SW,225,2.2,10.4,78,0.00,,,0.08,NetBSD+Arduino,2013-02-07 18:25:00,
2013-02-07 10:30:00,46.2,38.9,30.00,South,180,3.4,11.9,75,0.00,,,0.08,NetBSD+Arduino,2013-02-07 18:30:00,
2013-02-07 10:40:00,46.8,38.8,30.00,South,180,3.0,11.9,73,0.00,,,0.08,NetBSD+Arduino,2013-02-07 18:40:00,
2013-02-07 10:45:00,46.2,38.6,30.00,South,180,3.0,10.4,74,0.00,,,0.08,NetBSD+Arduino,2013-02-07 18:45:00,
2013-02-07 10:50:00,47.4,39.3,30.00,South,180,3.7,16.4,73,0.00,,,0.08,NetBSD+Arduino,2013-02-07 18:50:00,
2013-02-07 10:55:00,47.4,38.9,30.01,South,180,6.0,10.4,72,0.00,,,0.08,NetBSD+Arduino,2013-02-07 18:55:00,
2013-02-07 11:00:00,47.7,39.1,30.00,South,180,4.8,14.9,71,0.00,,,0.08,NetBSD+Arduino,2013-02-07 19:00:00,
2013-02-07 11:05:00,48.4,38.7,30.00,South,180,6.3,13.4,69,0.00,,,0.08,NetBSD+Arduino,2013-02-07 19:05:00,
2013-02-07 11:10:00,48.5,38.7,30.00,South,180,5.5,9.0,68,0.00,,,0.08,NetBSD+Arduino,2013-02-07 19:10:00,
2013-02-07 11:15:00,47.6,38.4,30.01,SW,225,6.0,13.4,70,0.00,,,0.08,NetBSD+Arduino,2013-02-07 19:15:00,
2013-02-07 11:20:00,47.0,38.2,30.01,West,270,1.5,10.4,71,0.00,,,0.08,NetBSD+Arduino,2013-02-07 19:20:00,
2013-02-07 11:25:00,46.9,37.8,30.01,South,180,6.3,9.0,70,0.00,,,0.08,NetBSD+Arduino,2013-02-07 19:25:00,
2013-02-07 11:30:00,47.7,38.0,30.01,South,180,3.4,10.4,69,0.00,,,0.08,NetBSD+Arduino,2013-02-07 19:30:00,
2013-02-07 11:35:00,47.4,36.7,30.01,SW,225,4.1,9.0,66,0.00,,,0.08,NetBSD+Arduino,2013-02-07 19:35:00,
2013-02-07 11:40:00,47.7,37.8,30.01,West,270,4.1,11.9,68,0.00,,,0.08,NetBSD+Arduino,2013-02-07 19:40:00,
2013-02-07 11:45:00,49.0,38.8,30.00,South,180,4.1,10.4,67,0.00,,,0.08,NetBSD+Arduino,2013-02-07 19:45:00,
2013-02-07 11:50:00,48.7,38.2,30.00,South,180,4.1,9.0,66,0.00,,,0.08,NetBSD+Arduino,2013-02-07 19:50:00,
2013-02-07 11:55:00,49.2,37.1,30.00,SW,225,3.7,10.4,62,0.00,,,0.08,NetBSD+Arduino,2013-02-07 19:55:00,
2013-02-07 12:00:00,48.1,35.8,30.00,SW,225,4.5,9.0,62,0.00,,,0.08,NetBSD+Arduino,2013-02-07 20:00:00,
2013-02-07 12:10:00,48.5,37.0,30.00,West,270,4.8,10.4,64,0.00,,,0.08,NetBSD+Arduino,2013-02-07 20:10:00,
2013-02-07 12:15:00,48.7,37.3,30.00,West,270,4.5,10.4,64,0.00,,,0.08,NetBSD+Arduino,2013-02-07 20:15:00,
2013-02-07 12:20:00,48.3,37.8,30.00,South,180,1.0,7.5,66,0.00,,,0.08,NetBSD+Arduino,2013-02-07 20:20:00,
2013-02-07 12:25:00,48.0,37.0,30.00,SW,225,3.0,6.0,65,0.00,,,0.08,NetBSD+Arduino,2013-02-07 20:25:00,
2013-02-07 12:30:00,48.2,37.2,30.00,South,180,2.2,10.4,65,0.00,,,0.08,NetBSD+Arduino,2013-02-07 20:30:00,
2013-02-07 12:35:00,48.5,37.7,30.00,SW,225,4.0,10.4,65,0.00,,,0.08,NetBSD+Arduino,2013-02-07 20:35:00,
2013-02-07 12:40:00,48.7,37.3,30.00,SW,225,2.6,9.0,64,0.00,,,0.08,NetBSD+Arduino,2013-02-07 20:40:00,
2013-02-07 12:45:00,48.3,37.1,30.00,West,270,3.4,6.0,65,0.00,,,0.08,NetBSD+Arduino,2013-02-07 20:45:00,
2013-02-07 12:50:00,48.6,38.3,30.00,SW,225,2.0,7.5,67,0.00,,,0.08,NetBSD+Arduino,2013-02-07 20:50:00,
2013-02-07 12:55:00,48.1,38.4,30.00,SW,225,4.8,9.0,69,0.00,,,0.08,NetBSD+Arduino,2013-02-07 20:55:00,
2013-02-07 13:00:00,48.6,38.4,30.00,SW,225,3.7,7.5,67,0.00,,,0.08,NetBSD+Arduino,2013-02-07 21:00:00,
2013-02-07 13:05:00,48.5,38.0,30.00,SW,225,4.8,9.0,66,0.00,,,0.08,NetBSD+Arduino,2013-02-07 21:05:00,
2013-02-07 13:10:00,48.5,37.6,30.00,SW,225,0.0,6.0,65,0.00,,,0.08,NetBSD+Arduino,2013-02-07 21:10:00,
2013-02-07 13:15:00,48.5,38.0,30.00,SW,225,6.3,7.5,66,0.00,,,0.08,NetBSD+Arduino,2013-02-07 21:15:00,
2013-02-07 13:20:00,48.7,37.8,30.00,NW,315,0.5,9.0,65,0.00,,,0.08,NetBSD+Arduino,2013-02-07 21:20:00,
2013-02-07 13:25:00,48.7,37.9,30.00,South,180,4.8,7.5,66,0.00,,,0.08,NetBSD+Arduino,2013-02-07 21:25:00,
2013-02-07 13:30:00,48.5,36.0,30.00,NW,315,0.0,6.0,61,0.00,,,0.08,NetBSD+Arduino,2013-02-07 21:30:00,
2013-02-07 13:35:00,48.9,37.1,30.00,West,270,2.2,7.5,63,0.00,,,0.08,NetBSD+Arduino,2013-02-07 21:35:00,
2013-02-07 13:40:00,50.2,37.3,30.00,South,180,2.7,7.5,61,0.00,,,0.08,NetBSD+Arduino,2013-02-07 21:40:00,
2013-02-07 13:45:00,50.0,37.2,30.00,SW,225,2.2,7.5,61,0.00,,,0.08,NetBSD+Arduino,2013-02-07 21:45:00,
2013-02-07 13:55:00,49.7,36.0,30.00,West,270,3.5,6.0,59,0.00,,,0.08,NetBSD+Arduino,2013-02-07 21:55:00,
2013-02-07 14:00:00,49.8,36.5,30.00,South,180,0.7,6.0,60,0.00,,,0.08,NetBSD+Arduino,2013-02-07 22:00:00,
2013-02-07 14:05:00,49.1,36.6,30.00,West,270,2.5,7.5,61,0.00,,,0.08,NetBSD+Arduino,2013-02-07 22:05:00,
2013-02-07 14:10:00,48.5,36.7,30.00,SW,225,3.5,6.0,63,0.00,,,0.08,NetBSD+Arduino,2013-02-07 22:10:00,
2013-02-07 14:15:00,48.5,36.4,30.00,West,270,3.0,6.0,62,0.00,,,0.08,NetBSD+Arduino,2013-02-07 22:15:00,
2013-02-07 14:20:00,48.0,37.2,30.00,West,270,1.1,4.5,65,0.00,,,0.08,NetBSD+Arduino,2013-02-07 22:20:00,
2013-02-07 14:25:00,47.8,36.4,30.00,SE,135,2.5,4.5,64,0.00,,,0.08,NetBSD+Arduino,2013-02-07 22:25:00,
2013-02-07 14:30:00,47.8,37.0,30.00,West,270,3.0,6.0,65,0.00,,,0.08,NetBSD+Arduino,2013-02-07 22:30:00,
2013-02-07 14:35:00,47.5,36.5,30.00,SW,225,1.5,6.0,65,0.00,,,0.08,NetBSD+Arduino,2013-02-07 22:35:00,
2013-02-07 14:40:00,47.4,36.5,30.00,SW,225,2.0,6.0,65,0.00,,,0.08,NetBSD+Arduino,2013-02-07 22:40:00,
2013-02-07 14:45:00,47.2,36.0,30.00,SW,225,1.9,9.0,64,0.00,,,0.08,NetBSD+Arduino,2013-02-07 22:45:00,
2013-02-07 14:50:00,46.9,35.9,30.01,NW,315,3.5,6.0,65,0.00,,,0.08,NetBSD+Arduino,2013-02-07 22:50:00,
2013-02-07 14:55:00,46.9,35.1,30.01,South,180,2.5,4.5,63,0.00,,,0.08,NetBSD+Arduino,2013-02-07 22:55:00,
2013-02-07 15:00:00,46.9,35.6,30.01,East,90,1.9,6.0,64,0.00,,,0.08,NetBSD+Arduino,2013-02-07 23:00:00,
2013-02-07 15:05:00,46.8,36.0,30.01,South,180,0.5,7.5,65,0.00,,,0.08,NetBSD+Arduino,2013-02-07 23:05:00,
2013-02-07 15:10:00,46.5,35.0,30.01,South,180,3.5,4.5,63,0.00,,,0.08,NetBSD+Arduino,2013-02-07 23:10:00,
2013-02-07 15:15:00,46.4,35.1,30.02,South,180,0.5,6.0,64,0.00,,,0.08,NetBSD+Arduino,2013-02-07 23:15:00,
2013-02-07 15:20:00,46.1,34.7,30.01,South,180,1.5,6.0,64,0.00,,,0.08,NetBSD+Arduino,2013-02-07 23:20:00,
2013-02-07 15:25:00,46.1,35.2,30.01,South,180,2.0,6.0,65,0.00,,,0.08,NetBSD+Arduino,2013-02-07 23:25:00,
2013-02-07 15:30:00,46.1,34.9,30.01,South,180,0.0,4.5,64,0.00,,,0.08,NetBSD+Arduino,2013-02-07 23:30:00,
2013-02-07 15:35:00,46.2,35.0,30.02,North,0,0.7,4.5,64,0.00,,,0.08,NetBSD+Arduino,2013-02-07 23:35:00,
2013-02-07 15:40:00,46.3,35.8,30.02,West,270,1.5,3.0,66,0.00,,,0.08,NetBSD+Arduino,2013-02-07 23:40:00,
2013-02-07 15:45:00,46.3,35.8,30.02,North,0,1.9,4.5,66,0.00,,,0.08,NetBSD+Arduino,2013-02-07 23:45:00,
2013-02-07 15:50:00,46.1,34.7,30.02,SW,225,0.5,3.0,64,0.00,,,0.08,NetBSD+Arduino,2013-02-07 23:50:00,
2013-02-07 15:55:00,46.2,34.7,30.02,SW,225,0.0,1.5,63,0.00,,,0.08,NetBSD+Arduino,2013-02-07 23:55:00,
2013-02-07 16:00:00,46.2,35.4,30.02,SW,225,1.0,3.0,65,0.00,,,0.08,NetBSD+Arduino,2013-02-08 00:00:00,
2013-02-07 16:05:00,46.3,34.6,30.02,NE,45,1.0,4.5,63,0.00,,,0.08,NetBSD+Arduino,2013-02-08 00:05:00,
2013-02-07 16:10:00,46.5,35.3,30.02,West,270,2.0,3.0,64,0.00,,,0.08,NetBSD+Arduino,2013-02-08 00:10:00,
2013-02-07 16:15:00,46.5,35.7,30.02,West,270,1.1,3.0,65,0.00,,,0.08,NetBSD+Arduino,2013-02-08 00:15:00,
2013-02-07 16:20:00,46.6,35.9,30.02,NW,315,0.0,4.5,66,0.00,,,0.08,NetBSD+Arduino,2013-02-08 00:20:00,
2013-02-07 16:25:00,46.8,36.1,30.03,NW,315,1.5,3.0,66,0.00,,,0.08,NetBSD+Arduino,2013-02-08 00:25:00,
2013-02-07 16:30:00,47.0,36.5,30.03,NW,315,0.7,3.0,66,0.00,,,0.08,NetBSD+Arduino,2013-02-08 00:30:00,
2013-02-07 16:35:00,46.9,36.1,30.03,West,270,2.5,4.5,65,0.00,,,0.08,NetBSD+Arduino,2013-02-08 00:35:00,
2013-02-07 16:40:00,46.5,35.0,30.03,West,270,1.0,6.0,63,0.00,,,0.08,NetBSD+Arduino,2013-02-08 00:40:00,
2013-02-07 16:45:00,46.3,35.3,30.03,West,270,0.0,4.5,65,0.00,,,0.08,NetBSD+Arduino,2013-02-08 00:45:00,
2013-02-07 16:50:00,45.8,35.1,30.03,NW,315,1.5,3.0,66,0.00,,,0.08,NetBSD+Arduino,2013-02-08 00:50:00,
2013-02-07 16:55:00,45.6,35.1,30.03,West,270,1.5,3.0,66,0.00,,,0.08,NetBSD+Arduino,2013-02-08 00:55:00,
2013-02-07 17:00:00,45.2,35.2,30.04,NW,315,2.6,3.0,67,0.00,,,0.08,NetBSD+Arduino,2013-02-08 01:00:00,
2013-02-07 17:05:00,44.9,35.6,30.05,West,270,2.6,3.0,69,0.00,,,0.08,NetBSD+Arduino,2013-02-08 01:05:00,
2013-02-07 17:10:00,44.5,35.5,30.05,NW,315,1.0,3.0,70,0.00,,,0.08,NetBSD+Arduino,2013-02-08 01:10:00,
2013-02-07 17:15:00,44.1,35.7,30.05,West,270,1.5,3.0,72,0.00,,,0.08,NetBSD+Arduino,2013-02-08 01:15:00,
2013-02-07 17:20:00,43.7,35.8,30.05,West,270,1.0,1.5,73,0.00,,,0.08,NetBSD+Arduino,2013-02-08 01:20:00,
2013-02-07 17:25:00,43.3,35.9,30.05,NW,315,0.0,1.5,74,0.00,,,0.08,NetBSD+Arduino,2013-02-08 01:25:00,
2013-02-07 17:30:00,43.1,36.1,30.05,West,270,0.0,1.5,76,0.00,,,0.08,NetBSD+Arduino,2013-02-08 01:30:00,
2013-02-07 17:35:00,42.8,36.0,30.05,West,270,0.0,1.5,76,0.00,,,0.08,NetBSD+Arduino,2013-02-08 01:35:00,
2013-02-07 17:40:00,42.8,36.0,30.05,NW,315,0.0,1.5,76,0.00,,,0.08,NetBSD+Arduino,2013-02-08 01:40:00,
2013-02-07 17:45:00,42.6,35.9,30.05,NW,315,0.0,3.0,76,0.00,,,0.08,NetBSD+Arduino,2013-02-08 01:45:00,
2013-02-07 17:50:00,42.3,35.8,30.05,NW,315,0.0,3.0,77,0.00,,,0.08,NetBSD+Arduino,2013-02-08 01:50:00,
2013-02-07 17:55:00,42.0,35.9,30.05,West,270,0.0,3.0,78,0.00,,,0.08,NetBSD+Arduino,2013-02-08 01:55:00,
2013-02-07 18:00:00,41.9,35.7,30.06,West,270,1.1,3.0,78,0.00,,,0.08,NetBSD+Arduino,2013-02-08 02:00:00,
2013-02-07 18:05:00,41.6,35.6,30.06,West,270,0.0,3.0,78,0.00,,,0.08,NetBSD+Arduino,2013-02-08 02:05:00,
2013-02-07 18:10:00,41.5,35.4,30.06,NW,315,1.0,1.5,78,0.00,,,0.08,NetBSD+Arduino,2013-02-08 02:10:00,
2013-02-07 18:15:00,41.5,35.8,30.06,NW,315,0.5,3.0,79,0.00,,,0.08,NetBSD+Arduino,2013-02-08 02:15:00,
2013-02-07 18:20:00,41.5,35.6,30.07,NW,315,0.4,3.0,79,0.00,,,0.08,NetBSD+Arduino,2013-02-08 02:20:00,
2013-02-07 18:25:00,41.5,35.8,30.06,NW,315,0.0,4.5,79,0.00,,,0.08,NetBSD+Arduino,2013-02-08 02:25:00,
2013-02-07 18:30:00,41.5,36.0,30.07,NW,315,0.7,1.5,80,0.00,,,0.08,NetBSD+Arduino,2013-02-08 02:30:00,
2013-02-07 18:35:00,41.3,36.1,30.07,NW,315,0.0,1.5,81,0.00,,,0.08,NetBSD+Arduino,2013-02-08 02:35:00,
2013-02-07 18:40:00,41.0,36.2,30.07,NW,315,0.0,1.5,82,0.00,,,0.08,NetBSD+Arduino,2013-02-08 02:40:00,
2013-02-07 18:45:00,40.7,36.2,30.07,West,270,0.7,1.5,83,0.00,,,0.08,NetBSD+Arduino,2013-02-08 02:45:00,
2013-02-07 18:50:00,40.6,36.5,30.07,NW,315,1.1,3.0,85,0.00,,,0.08,NetBSD+Arduino,2013-02-08 02:50:00,
2013-02-07 18:55:00,40.6,36.5,30.08,West,270,0.0,3.0,85,0.00,,,0.08,NetBSD+Arduino,2013-02-08 02:55:00,
2013-02-07 19:00:00,40.6,36.7,30.08,NW,315,0.0,4.5,85,0.00,,,0.08,NetBSD+Arduino,2013-02-08 03:00:00,
2013-02-07 19:05:00,40.9,36.8,30.08,North,0,4.5,4.5,85,0.00,,,0.08,NetBSD+Arduino,2013-02-08 03:05:00,
2013-02-07 19:10:00,40.8,36.6,30.08,NW,315,0.7,6.0,84,0.00,,,0.08,NetBSD+Arduino,2013-02-08 03:10:00,
2013-02-07 19:15:00,40.6,36.6,30.08,NW,315,0.0,1.5,85,0.00,,,0.08,NetBSD+Arduino,2013-02-08 03:15:00,
2013-02-07 19:20:00,40.4,36.5,30.09,NW,315,1.5,3.0,85,0.00,,,0.08,NetBSD+Arduino,2013-02-08 03:20:00,
2013-02-07 19:25:00,40.3,36.7,30.09,West,270,0.4,3.0,86,0.00,,,0.08,NetBSD+Arduino,2013-02-08 03:25:00,
2013-02-07 19:30:00,40.3,36.7,30.09,West,270,0.7,3.0,86,0.00,,,0.08,NetBSD+Arduino,2013-02-08 03:30:00,
2013-02-07 19:35:00,40.4,36.9,30.09,NW,315,1.0,3.0,87,0.00,,,0.08,NetBSD+Arduino,2013-02-08 03:35:00,
2013-02-07 19:40:00,40.8,37.1,30.09,North,0,1.1,6.0,86,0.00,,,0.08,NetBSD+Arduino,2013-02-08 03:40:00,
2013-02-07 19:45:00,40.6,37.0,30.10,NW,315,1.1,6.0,86,0.00,,,0.08,NetBSD+Arduino,2013-02-08 03:45:00,
2013-02-07 19:50:00,40.6,37.1,30.10,North,0,2.0,6.0,87,0.00,,,0.08,NetBSD+Arduino,2013-02-08 03:50:00,
2013-02-07 19:55:00,40.4,37.0,30.10,NW,315,0.4,3.0,87,0.00,,,0.08,NetBSD+Arduino,2013-02-08 03:55:00,
2013-02-07 20:00:00,40.2,37.1,30.10,NW,315,0.0,3.0,88,0.00,,,0.08,NetBSD+Arduino,2013-02-08 04:00:00,
2013-02-07 20:05:00,40.0,36.9,30.10,North,0,1.0,4.5,88,0.00,,,0.08,NetBSD+Arduino,2013-02-08 04:05:00,
2013-02-07 20:10:00,39.9,37.0,30.10,North,0,0.0,3.0,89,0.00,,,0.08,NetBSD+Arduino,2013-02-08 04:10:00,
2013-02-07 20:15:00,39.6,36.9,30.10,North,0,0.7,3.0,89,0.00,,,0.08,NetBSD+Arduino,2013-02-08 04:15:00,
2013-02-07 20:20:00,39.4,36.8,30.10,West,270,1.5,3.0,90,0.00,,,0.08,NetBSD+Arduino,2013-02-08 04:20:00,
2013-02-07 20:25:00,39.3,36.8,30.11,NW,315,1.9,3.0,90,0.00,,,0.08,NetBSD+Arduino,2013-02-08 04:25:00,
2013-02-07 20:30:00,39.4,36.9,30.11,NW,315,0.4,4.5,90,0.00,,,0.08,NetBSD+Arduino,2013-02-08 04:30:00,
2013-02-07 20:35:00,39.3,36.8,30.11,NW,315,0.0,3.0,90,0.00,,,0.08,NetBSD+Arduino,2013-02-08 04:35:00,
2013-02-07 20:40:00,39.3,37.0,30.12,NW,315,1.5,4.5,91,0.00,,,0.08,NetBSD+Arduino,2013-02-08 04:40:00,
2013-02-07 20:50:00,38.9,36.7,30.12,West,270,0.0,3.0,91,0.00,,,0.08,NetBSD+Arduino,2013-02-08 04:50:00,
2013-02-07 20:55:00,38.9,36.8,30.12,NW,315,0.5,4.5,92,0.00,,,0.08,NetBSD+Arduino,2013-02-08 04:55:00,
2013-02-07 21:00:00,39.0,37.0,30.12,NW,315,1.1,3.0,92,0.00,,,0.08,NetBSD+Arduino,2013-02-08 05:00:00,
2013-02-07 21:05:00,39.2,37.1,30.12,NW,315,1.5,4.5,92,0.00,,,0.08,NetBSD+Arduino,2013-02-08 05:05:00,
2013-02-07 21:10:00,39.1,37.0,30.12,West,270,2.5,4.5,92,0.00,,,0.08,NetBSD+Arduino,2013-02-08 05:10:00,
2013-02-07 21:20:00,39.2,37.1,30.12,West,270,0.4,3.0,92,0.00,,,0.08,NetBSD+Arduino,2013-02-08 05:20:00,
2013-02-07 21:25:00,39.2,37.1,30.12,NW,315,1.1,4.5,91,0.00,,,0.08,NetBSD+Arduino,2013-02-08 05:25:00,
2013-02-07 21:30:00,39.3,37.0,30.13,NW,315,2.1,4.5,91,0.00,,,0.08,NetBSD+Arduino,2013-02-08 05:30:00,
2013-02-07 21:35:00,39.2,36.9,30.13,NW,315,1.1,3.0,91,0.00,,,0.08,NetBSD+Arduino,2013-02-08 05:35:00,
2013-02-07 21:45:00,39.3,36.9,30.13,NW,315,0.0,6.0,91,0.00,,,0.08,NetBSD+Arduino,2013-02-08 05:45:00,
2013-02-07 21:50:00,39.4,36.9,30.13,North,0,0.0,6.0,90,0.00,,,0.08,NetBSD+Arduino,2013-02-08 05:50:00,
2013-02-07 21:55:00,39.2,36.7,30.13,NW,315,0.4,7.5,90,0.00,,,0.08,NetBSD+Arduino,2013-02-08 05:55:00,
2013-02-07 22:00:00,39.0,36.5,30.14,North,0,0.5,4.5,90,0.00,,,0.08,NetBSD+Arduino,2013-02-08 06:00:00,
2013-02-07 22:10:00,38.9,36.6,30.14,NW,315,3.0,4.5,91,0.00,,,0.08,NetBSD+Arduino,2013-02-08 06:10:00,
2013-02-07 22:15:00,38.8,36.5,30.15,North,0,2.2,6.0,91,0.00,,,0.08,NetBSD+Arduino,2013-02-08 06:15:00,
2013-02-07 22:20:00,38.7,36.4,30.15,North,0,1.1,6.0,91,0.00,,,0.08,NetBSD+Arduino,2013-02-08 06:20:00,
2013-02-07 22:30:00,38.2,36.1,30.15,North,0,1.0,3.0,92,0.00,,,0.08,NetBSD+Arduino,2013-02-08 06:30:00,
2013-02-07 22:40:00,37.9,36.1,30.15,North,0,1.1,3.0,92,0.00,,,0.08,NetBSD+Arduino,2013-02-08 06:40:00,
2013-02-07 22:45:00,37.9,36.2,30.16,NE,45,0.0,3.0,93,0.00,,,0.08,NetBSD+Arduino,2013-02-08 06:45:00,
2013-02-07 22:50:00,37.7,36.0,30.16,North,0,0.0,1.5,93,0.00,,,0.08,NetBSD+Arduino,2013-02-08 06:50:00,
2013-02-07 22:55:00,37.3,35.7,30.16,North,0,0.0,3.0,93,0.00,,,0.08,NetBSD+Arduino,2013-02-08 06:55:00,
2013-02-07 23:00:00,37.2,35.7,30.16,North,0,0.0,1.5,94,0.00,,,0.08,NetBSD+Arduino,2013-02-08 07:00:00,
2013-02-07 23:05:00,37.0,35.6,30.16,North,0,0.0,1.5,94,0.00,,,0.08,NetBSD+Arduino,2013-02-08 07:05:00,
2013-02-07 23:10:00,36.9,35.6,30.16,North,0,0.4,3.0,95,0.00,,,0.08,NetBSD+Arduino,2013-02-08 07:10:00,
2013-02-07 23:15:00,36.9,35.6,30.17,NE,45,0.5,1.5,95,0.00,,,0.08,NetBSD+Arduino,2013-02-08 07:15:00,
2013-02-07 23:20:00,36.9,35.6,30.17,NE,45,1.0,3.0,95,0.00,,,0.08,NetBSD+Arduino,2013-02-08 07:20:00,
2013-02-07 23:25:00,36.7,35.5,30.16,NE,45,0.0,3.0,95,0.00,,,0.08,NetBSD+Arduino,2013-02-08 07:25:00,
2013-02-07 23:30:00,36.7,35.5,30.17,NE,45,1.0,3.0,95,0.00,,,0.08,NetBSD+Arduino,2013-02-08 07:30:00,
2013-02-07 23:35:00,36.7,35.6,30.17,NE,45,1.5,3.0,95,0.00,,,0.08,NetBSD+Arduino,2013-02-08 07:35:00,
2013-02-07 23:40:00,36.5,35.4,30.17,NE,45,0.0,1.5,95,0.00,,,0.08,NetBSD+Arduino,2013-02-08 07:40:00,
2013-02-07 23:45:00,36.5,35.4,30.17,North,0,1.5,3.0,95,0.00,,,0.08,NetBSD+Arduino,2013-02-08 07:45:00,
2013-02-07 23:50:00,36.5,35.6,30.17,North,0,0.4,3.0,96,0.00,,,0.08,NetBSD+Arduino,2013-02-08 07:50:00,
2013-02-07 23:55:00,36.4,35.5,30.17,North,0,0.0,1.5,96,0.00,,,0.08,NetBSD+Arduino,2013-02-08 07:55:00,